E1763 Weather Reports


time (UTC)temp
C
wind
direction
speed
KPH
gust
KPH
rain 1hr
cm
rain 24hr
cm
rain mn
cm
humidity
%
barometer
mb
20260506114511 10 300 0.0 0.0 0.00 0.00 0.00 95 1014.7
20260506113011 10 291 0.0 0.0 0.00 0.00 0.00 95 1014.7
20260506111509 10 291 0.0 0.0 0.00 0.00 0.00 95 1014.6
20260506110009 11 291 0.0 0.0 0.00 0.00 0.00 95 1014.4
20260506104505 11 291 0.0 0.0 0.00 0.00 0.00 95 1014.3
20260506103015 10 291 0.0 0.0 0.00 0.00 0.00 95 1014.2
20260506101504 11 5 0.0 0.0 0.00 0.00 0.00 95 1013.9
20260506100002 11 5 0.0 0.0 0.00 0.00 0.00 95 1013.9
20260506094604 11 5 0.0 0.0 0.00 0.00 0.00 95 1013.9
20260506093101 11 5 0.0 0.0 0.00 0.00 0.00 94 1013.9
20260506091604 11 5 0.0 0.0 0.00 0.00 0.00 94 1013.8
20260506090104 11 5 0.0 0.0 0.00 0.00 0.00 94 1013.7
20260506084629 11 5 0.0 0.0 0.00 0.00 0.00 94 1013.8
20260506083057 11 5 0.0 0.0 0.00 0.00 0.00 94 1013.8
20260506081600 11 5 0.0 0.0 0.00 0.00 0.00 94 1013.7
20260506073052 11 336 0.0 0.0 0.00 0.00 0.00 94 1013.7
20260506071551 11 336 0.0 0.0 0.00 0.00 0.00 94 1013.5
20260506061544 11 9 0.0 0.0 0.00 0.00 0.00 93 1012.9
20260506044539 11 12 0.0 0.0 0.00 0.00 0.00 93 1012.5
20260506043043 11 219 0.0 0.0 0.00 0.00 0.00 92 1012.3
20260506041534 11 5 0.0 0.0 0.00 0.00 0.00 92 1012.2
20260506040036 11 276 0.0 0.0 0.00 0.00 0.00 91 1012.0
20260506034532 11 248 0.0 0.0 0.00 0.00 0.00 91 1011.7
20260506033027 11 333 0.0 0.0 0.00 0.00 0.00 90 1011.6
20260506031532 12 329 0.0 0.0 0.00 0.00 0.00 90 1011.4
20260506030023 12 336 0.0 0.0 0.00 0.00 0.00 90 1011.2
20260506024522 12 281 0.0 0.0 0.00 0.00 0.00 90 1011.0
20260506023035 12 315 0.0 0.0 0.00 0.00 0.00 89 1010.9
20260506021532 12 280 0.0 0.0 0.00 0.00 0.00 89 1010.8
20260506020024 12 283 0.0 0.0 0.00 0.00 0.00 89 1010.8
20260506014519 12 263 0.0 0.0 0.00 0.00 0.00 88 1010.7
20260506013021 12 24 0.0 0.0 0.00 0.00 0.00 89 1010.7
20260506011516 12 349 0.0 0.0 0.00 0.00 0.00 88 1010.7
20260506010016 13 302 0.0 11.3 0.00 0.00 0.00 87 1010.5
20260506004515 13 250 0.0 0.0 0.00 0.00 0.00 87 1010.6
20260506003016 13 278 0.0 1.6 0.00 0.00 0.00 88 1010.6
20260506001514 13 222 0.0 3.2 0.00 0.00 0.00 88 1010.5
20260506000013 13 34 0.0 9.7 0.00 0.00 0.00 87 1010.5
20260505234514 13 49 0.0 8.0 0.00 0.00 0.00 87 1010.4
20260505233012 13 225 0.0 0.0 0.00 0.00 0.00 86 1010.5
20260505231525 14 190 0.0 0.0 0.00 0.00 0.00 85 1010.6
20260505230021 15 28 0.0 0.0 0.00 0.00 0.00 83 1010.6
20260505224513 15 28 0.0 0.0 0.00 0.00 0.00 84 1010.5
20260505223009 15 169 0.0 0.0 0.00 0.00 0.00 82 1010.6
20260505221508 16 257 0.0 0.0 0.00 0.00 0.00 82 1010.7
20260505220006 16 256 0.0 0.0 0.00 0.00 0.00 81 1010.6
20260505214507 16 214 0.0 0.0 0.00 0.00 0.00 79 1010.6
20260505213014 16 238 0.0 0.0 0.00 0.00 0.00 80 1010.6
20260505211509 16 167 0.0 0.0 0.00 0.00 0.00 80 1010.6
20260505210004 16 188 0.0 0.0 0.00 0.00 0.00 81 1010.6
20260505204503 16 178 0.0 0.0 0.00 0.00 0.00 80 1010.5
20260505203001 16 180 0.0 0.0 0.00 0.00 0.00 81 1010.6
20260505201500 16 217 0.0 0.0 0.00 0.00 0.00 79 1010.7
20260505200058 16 175 0.0 0.0 0.00 0.00 0.00 83 1010.6
20260505194555 15 205 0.0 0.0 0.00 0.03 0.00 83 1010.6
20260505193053 15 187 0.0 0.0 0.00 0.03 0.00 84 1010.7
20260505191602 15 200 0.0 4.8 0.00 0.03 0.00 85 1010.7
20260505190049 15 222 0.0 0.0 0.00 0.03 0.00 84 1010.6
20260505184546 15 154 0.0 0.0 0.00 0.05 0.00 84 1010.6
20260505183044 14 5 0.0 0.0 0.00 0.05 0.00 84 1010.6
20260505181545 14 26 0.0 4.8 0.00 0.05 0.00 87 1010.5
20260505180039 13 230 0.0 0.0 0.00 0.05 0.00 87 1010.4
20260505174541 13 344 0.0 0.0 0.00 0.05 0.00 87 1010.4
20260505173034 13 11 0.0 0.0 0.00 0.05 0.00 90 1010.3
20260505171533 13 347 0.0 0.0 0.00 0.05 0.00 90 1010.3
20260505170030 13 281 0.0 0.0 0.00 0.05 0.00 91 1010.3
20260505164529 12 205 0.0 0.0 0.00 0.08 0.00 92 1010.3
20260505163033 12 19 0.0 0.0 0.00 0.08 0.00 93 1010.1
20260505161526 12 355 0.0 1.6 0.00 0.08 0.00 94 1010.1
20260505153022 11 321 0.0 3.2 0.00 0.08 0.00 96 1010.0
20260505151521 11 281 0.0 0.0 0.00 0.08 0.00 96 1010.0
20260505124514 10 25 0.0 0.0 0.00 0.08 0.00 96 1009.2
20260505123013 10 25 0.0 0.0 0.00 0.08 0.00 96 1009.3
20260505121514 10 25 0.0 0.0 0.00 0.08 0.00 96 1009.1
20260505120011 11 25 0.0 0.0 0.00 0.08 0.00 96 1009.2